{"data":{"norad_id":66830,"intl_designator":"2025-280K","name":"STARLINK-35881","alt_names":[],"object_type":"PAYLOAD","status":"ACTIVE","operator":null,"country":"US","launch_date":"2025-12-02","launch_site_code":"AFWTR","launch_vehicle":null,"mission":null,"orbit_class":"UNKNOWN","rcs_meters":null,"size_class":null,"mass_kg":null,"dimensions":null,"purposes":["comms"],"wikipedia_slug":null,"has_3d_model":false,"image_url":null,"decayed_at":null,"tle_current":{"epoch":"2026-09-20T13:46:57.453312Z","epoch_age_seconds":77654,"freshness":"FRESH","line1":"1 66830U 25280K   26263.57427608  .00004305  00000+0  36832-3 0  9994","line2":"2 66830  70.0001 203.2481 0002345 269.5795  90.5096 14.98334129 45260","mean_motion":14.98334129,"eccentricity":0.0002345,"inclination_deg":70.0001,"raan_deg":203.2481,"arg_perigee_deg":269.5795,"mean_anomaly_deg":90.5096,"bstar":0.00036832,"rev_number":4526,"period_min":96.106734281029,"perigee_km":570.41330514314,"apogee_km":573.67293962054,"semimajor_km":6950.1801223818,"source":"CELESTRAK","updated_at":"2026-09-21T09:00:36.021364Z"}}}